NR0A-4 Weather Reports


Display with metric or nautical units.
time (UTC)temp
F
wind
direction
speed
MPH
gust
MPH
rain 1hr
in
rain 24hr
in
rain mn
in
humidity
%
barometer
mb
20181021022112 38 181 0.0 0.0 0.00 0.04 0.04 60 1027.2
20181021021612 38 181 0.0 0.0 0.00 0.04 0.04 59 1027.2
20181021021112 38 181 0.0 0.0 0.00 0.04 0.04 59 1027.3
20181021020612 39 181 0.0 0.0 0.00 0.04 0.04 59 1026.1
20181021020112 39 181 0.0 0.0 0.00 0.04 0.04 59 1027.4
20181021015612 39 181 0.0 0.0 0.00 0.04 0.04 59 1027.4
20181021015112 39 181 0.0 0.0 0.00 0.04 0.04 58 1027.3
20181021014612 40 356 0.0 0.0 0.00 0.04 0.04 58 1027.0
20181021014112 40 356 0.0 0.0 0.00 0.04 0.04 57 1027.2
20181021013611 40 356 0.0 0.0 0.00 0.04 0.04 56 1027.2
20181021013111 40 356 0.0 0.0 0.00 0.04 0.04 54 1027.3
20181021012611 40 356 0.0 0.0 0.00 0.04 0.04 54 1027.2
20181021012111 40 356 0.0 0.0 0.00 0.04 0.04 54 1027.0
20181021011611 41 356 0.0 0.0 0.00 0.04 0.04 54 1027.0
20181021011111 41 356 0.0 0.0 0.00 0.04 0.04 54 1027.0
20181021010611 41 356 0.0 0.0 0.00 0.04 0.04 53 1027.1
20181021010111 41 9 1.0 5.0 0.00 0.04 0.04 52 1027.1
20181021005611 42 14 0.0 0.0 0.00 0.04 0.04 52 1027.0
20181021005111 42 14 0.0 0.0 0.00 0.04 0.04 51 1027.2
20181021004611 42 325 0.0 0.0 0.00 0.04 0.04 50 1027.2
20181021004111 42 356 0.0 0.0 0.00 0.04 0.04 50 1027.2
20181021003611 42 356 0.0 0.0 0.00 0.04 0.04 50 1027.1
20181021003111 43 10 0.0 1.0 0.00 0.04 0.04 49 1027.1
20181021002611 43 16 0.0 1.0 0.00 0.04 0.04 48 1027.1
20181021002110 43 0 0.0 0.0 0.00 0.04 0.04 48 1027.2
20181021001610 43 0 0.0 0.0 0.00 0.04 0.04 48 1027.1
20181021001113 43 0 0.0 0.0 0.00 0.04 0.04 48 1027.1
20181021000613 44 0 0.0 0.0 0.00 0.04 0.04 47 1027.0
20181021000113 44 0 0.0 0.0 0.00 0.04 0.04 47 1026.8
20181020235613 45 8 0.0 0.0 0.00 0.04 0.04 46 1026.9
20181020235113 45 8 0.0 0.0 0.00 0.04 0.04 46 1026.9
20181020234612 46 8 0.0 0.0 0.00 0.04 0.04 45 1026.7
20181020234112 46 283 0.0 1.0 0.00 0.04 0.04 44 1026.8
20181020233612 47 292 0.0 0.0 0.02 0.04 0.04 43 1026.9
20181020233112 47 292 0.0 0.0 0.02 0.04 0.04 43 1026.9
20181020232612 47 292 0.0 0.0 0.02 0.04 0.04 42 1026.9
20181020232111 48 210 1.0 2.0 0.02 0.04 0.04 42 1026.9
20181020231610 49 310 0.0 0.0 0.02 0.04 0.04 41 1027.0
20181020231110 49 240 0.0 0.0 0.02 0.04 0.04 41 1027.1
20181020230610 50 306 0.0 2.0 0.02 0.04 0.04 40 1027.0
20181020230110 50 267 0.0 0.0 0.02 0.04 0.04 41 1027.1
20181020225610 50 284 0.0 0.0 0.02 0.04 0.04 40 1027.1
20181020225110 50 296 0.0 0.0 0.02 0.04 0.04 40 1027.2
20181020224610 51 296 0.0 0.0 0.02 0.04 0.04 40 1027.1
20181020224110 51 296 0.0 0.0 0.02 0.04 0.04 39 1027.1
20181020223610 51 296 0.0 0.0 0.00 0.02 0.02 40 1027.2
20181020223114 51 296 0.0 0.0 0.00 0.02 0.02 39 1027.1
20181020222614 51 296 0.0 0.0 0.00 0.02 0.02 39 1027.2
20181020222114 51 296 0.0 0.0 0.00 0.02 0.02 40 1027.1
20181020221614 51 296 0.0 0.0 0.00 0.02 0.02 41 1027.1
20181020221114 52 296 0.0 0.0 0.00 0.02 0.02 40 1027.2
20181020220613 52 296 0.0 0.0 0.00 0.02 0.02 40 1027.2
20181020220113 52 296 1.0 2.0 0.00 0.02 0.02 40 1027.2
20181020215613 52 234 1.0 2.0 0.00 0.02 0.02 41 1027.2
20181020215113 52 340 2.0 7.0 0.00 0.02 0.02 40 1027.3
20181020214613 52 327 0.0 2.0 0.02 0.02 0.02 41 1027.3
20181020214112 52 307 2.0 8.0 0.02 0.02 0.02 42 1027.3
20181020213612 52 341 1.0 2.0 0.02 0.02 0.02 42 1027.4
20181020213112 52 265 1.0 2.0 0.02 0.02 0.02 42 1027.4
20181020212612 52 303 1.0 2.0 0.02 0.02 0.02 42 1027.4
20181020212112 52 298 2.0 7.0 0.02 0.02 0.02 42 1027.4
20181020211612 53 273 1.0 3.0 0.02 0.02 0.02 41 1027.5
20181020211112 53 295 1.0 5.0 0.02 0.02 0.02 41 1027.5
20181020210612 53 310 1.0 6.0 0.02 0.02 0.02 41 1027.4
20181020210110 53 292 3.0 6.0 0.02 0.02 0.02 42 1027.4
20181020205610 53 299 2.0 3.0 0.02 0.02 0.02 43 1027.4
20181020205110 53 258 1.0 2.0 0.02 0.02 0.02 44 1027.4
20181020204610 53 305 2.0 6.0 0.00 0.00 0.00 44 1027.4
20181020204114 53 265 2.0 5.0 0.00 0.00 0.00 44 1027.5
20181020203614 53 255 2.0 2.0 0.00 0.00 0.00 42 1027.4
20181020203114 53 306 2.0 3.0 0.00 0.00 0.00 43 1027.4
20181020202614 52 291 2.0 5.0 0.00 0.00 0.00 43 1027.4
20181020202114 53 307 2.0 6.0 0.00 0.00 0.00 46 1027.4
20181020201613 53 272 1.0 2.0 0.00 0.00 0.00 45 1027.5
20181020201113 53 298 2.0 6.0 0.00 0.00 0.00 47 1027.5
20181020200613 53 316 3.0 9.0 0.00 0.00 0.00 45 1027.5
20181020200113 53 323 1.0 2.0 0.00 0.00 0.00 47 1027.5
20181020195613 53 291 1.0 12.0 0.00 0.00 0.00 47 1027.6
20181020195114 52 293 1.0 9.0 0.00 0.00 0.00 46 1027.4
20181020194613 52 305 2.0 8.0 0.00 0.00 0.00 46 1027.6
20181020194113 52 263 2.0 5.0 0.00 0.00 0.00 45 1027.6
20181020193613 52 296 1.0 10.0 0.00 0.00 0.00 46 1027.5
20181020193113 52 289 5.0 13.0 0.00 0.00 0.00 45 1027.6
20181020192613 52 308 5.0 7.0 0.00 0.00 0.00 46 1027.6
20181020192113 52 288 2.0 5.0 0.00 0.00 0.00 48 1027.6
20181020191613 52 268 1.0 3.0 0.00 0.00 0.00 48 1027.5
20181020191113 52 297 2.0 5.0 0.00 0.00 0.00 48 1027.6
20181020190612 52 293 3.0 6.0 0.00 0.00 0.00 47 1027.6
20181020190112 52 277 2.0 14.0 0.00 0.00 0.00 48 1027.6
20181020185612 52 299 3.0 7.0 0.00 0.00 0.00 48 1027.7
20181020185112 52 296 2.0 3.0 0.00 0.00 0.00 50 1027.7
20181020184612 52 318 2.0 8.0 0.00 0.00 0.00 50 1027.7
20181020184112 51 211 1.0 9.0 0.00 0.00 0.00 51 1027.7
20181020183612 51 287 2.0 3.0 0.00 0.00 0.00 52 1027.8
20181020183112 51 282 5.0 8.0 0.00 0.00 0.00 50 1027.8
20181020182612 51 296 3.0 5.0 0.00 0.00 0.00 51 1027.8
20181020182112 51 308 3.0 7.0 0.00 0.00 0.00 52 1027.8
20181020181612 51 299 3.0 13.0 0.00 0.00 0.00 52 1027.8
20181020181112 51 320 2.0 6.0 0.00 0.00 0.00 52 1027.8
20181020180611 51 317 7.0 14.0 0.00 0.00 0.00 51 1027.8
20181020180111 51 285 2.0 6.0 0.00 0.00 0.00 53 1027.8
20181020175611 51 291 3.0 8.0 0.00 0.00 0.00 53 1027.8
20181020175113 51 319 5.0 8.0 0.00 0.00 0.00 54 1027.9
20181020174611 51 288 2.0 3.0 0.00 0.00 0.00 54 1027.9
20181020174111 51 326 3.0 7.0 0.00 0.00 0.00 54 1028.0
20181020173614 51 310 3.0 8.0 0.00 0.00 0.00 53 1028.0
20181020173114 51 305 5.0 9.0 0.00 0.00 0.00 54 1027.9
20181020172614 51 285 3.0 5.0 0.00 0.00 0.00 55 1027.9
20181020172112 51 288 3.0 6.0 0.00 0.00 0.00 56 1027.9
20181020171612 51 301 2.0 5.0 0.00 0.00 0.00 56 1027.8
20181020171112 51 276 5.0 12.0 0.00 0.00 0.00 55 1027.6
20181020170612 50 229 2.0 2.0 0.00 0.00 0.00 58 1027.6
20181020170112 50 294 6.0 9.0 0.00 0.00 0.00 57 1027.7
20181020165612 50 314 5.0 7.0 0.00 0.00 0.00 57 1027.7
20181020165111 50 303 3.0 7.0 0.00 0.00 0.00 59 1027.7
20181020164611 50 292 5.0 9.0 0.00 0.00 0.00 58 1027.8
20181020164111 50 297 5.0 12.0 0.00 0.00 0.00 58 1027.7
20181020163611 50 291 3.0 6.0 0.00 0.00 0.00 59 1027.7
20181020163111 50 288 3.0 5.0 0.00 0.00 0.00 60 1027.6
20181020162610 49 296 3.0 7.0 0.00 0.00 0.00 60 1027.6
20181020162110 49 289 2.0 5.0 0.00 0.00 0.00 61 1027.6
20181020161610 49 298 5.0 7.0 0.00 0.00 0.00 61 1027.5
20181020161110 48 292 3.0 7.0 0.00 0.00 0.00 62 1027.5
20181020160614 48 312 5.0 7.0 0.00 0.00 0.00 62 1027.4
20181020160114 49 319 3.0 10.0 0.00 0.00 0.00 62 1027.4
20181020155614 48 280 3.0 6.0 0.00 0.00 0.00 63 1027.3
20181020155114 48 311 2.0 5.0 0.00 0.00 0.00 63 1027.3
20181020154614 48 296 3.0 9.0 0.00 0.00 0.00 63 1027.3
20181020154114 48 280 2.0 7.0 0.00 0.00 0.00 63 1027.2
20181020153614 48 302 3.0 6.0 0.00 0.00 0.00 63 1027.2
20181020153114 48 307 3.0 5.0 0.00 0.00 0.00 63 1027.2
20181020152614 47 280 2.0 5.0 0.00 0.00 0.00 63 1027.1
20181020152114 47 289 3.0 6.0 0.00 0.00 0.00 63 1027.1
20181020151613 47 281 3.0 6.0 0.00 0.00 0.00 64 1027.0
20181020151113 47 283 3.0 5.0 0.00 0.00 0.00 64 1026.9
20181020150613 46 274 2.0 3.0 0.00 0.00 0.00 65 1026.8
20181020150112 46 294 3.0 5.0 0.00 0.00 0.00 65 1026.7
20181020145612 46 283 3.0 6.0 0.00 0.00 0.00 65 1026.7
20181020145112 46 256 1.0 5.0 0.00 0.00 0.00 66 1026.6
20181020144612 45 252 2.0 10.0 0.00 0.00 0.00 66 1026.6
20181020144112 45 272 1.0 3.0 0.00 0.00 0.00 68 1026.6
20181020143611 45 211 1.0 2.0 0.00 0.00 0.00 68 1026.5
20181020143111 44 240 1.0 3.0 0.00 0.00 0.00 69 1026.5
20181020142611 44 281 1.0 2.0 0.00 0.00 0.00 69 1026.3
20181020142111 43 249 1.0 6.0 0.00 0.00 0.00 70 1026.3
20181020141611 43 265 1.0 2.0 0.00 0.00 0.00 71 1026.1
20181020141111 43 233 1.0 2.0 0.00 0.00 0.00 72 1026.1
20181020140612 42 285 2.0 3.0 0.00 0.00 0.00 72 1026.0
20181020140111 42 296 1.0 2.0 0.00 0.00 0.00 73 1025.9
20181020135611 42 246 1.0 5.0 0.00 0.00 0.00 74 1025.8
20181020135111 41 257 2.0 2.0 0.00 0.00 0.00 74 1025.7
20181020134611 41 279 2.0 5.0 0.00 0.00 0.00 75 1025.5
20181020134111 40 253 1.0 2.0 0.00 0.00 0.00 76 1025.4
20181020133611 40 185 1.0 3.0 0.00 0.00 0.00 77 1025.3
20181020133111 39 257 2.0 6.0 0.00 0.00 0.00 77 1025.2
20181020132611 39 225 1.0 2.0 0.00 0.00 0.00 78 1025.1
20181020132111 38 242 1.0 3.0 0.00 0.00 0.00 79 1025.0
20181020131611 38 268 0.0 2.0 0.00 0.00 0.00 80 1025.0
20181020131110 37 239 1.0 9.0 0.00 0.00 0.00 81 1024.8
20181020130610 37 235 1.0 2.0 0.00 0.00 0.00 82 1024.7
20181020130110 36 225 1.0 5.0 0.00 0.00 0.00 83 1024.5
20181020125610 36 237 1.0 1.0 0.00 0.00 0.00 84 1024.5
20181020125110 35 217 0.0 2.0 0.00 0.00 0.00 84 1024.5
20181020124610 35 228 1.0 2.0 0.00 0.00 0.00 84 1024.4
20181020124110 35 237 1.0 3.0 0.00 0.00 0.00 84 1024.4
20181020123615 35 173 0.0 1.0 0.00 0.00 0.00 84 1024.4
20181020123115 35 236 1.0 7.0 0.00 0.00 0.00 84 1024.3
20181020122614 35 236 3.0 5.0 0.00 0.00 0.00 84 1024.3
20181020122114 35 243 1.0 5.0 0.00 0.00 0.00 84 1024.3
20181020121614 35 231 1.0 3.0 0.00 0.00 0.00 83 1024.2
20181020121114 36 233 2.0 2.0 0.00 0.00 0.00 82 1024.3
20181020120614 36 234 0.0 2.0 0.00 0.00 0.00 82 1024.2
20181020120114 36 242 3.0 6.0 0.00 0.00 0.00 81 1024.1
20181020115614 37 230 0.0 2.0 0.00 0.00 0.00 80 1024.1
20181020115113 37 223 0.0 0.0 0.00 0.00 0.00 79 1024.0
20181020114612 38 222 1.0 3.0 0.00 0.00 0.00 77 1024.0
20181020114111 39 233 2.0 5.0 0.00 0.00 0.00 75 1023.9
20181020113612 39 226 1.0 2.0 0.00 0.00 0.00 75 1023.9
20181020113111 39 273 1.0 2.0 0.00 0.01 0.00 75 1023.8
20181020112612 39 240 1.0 3.0 0.00 0.01 0.00 75 1023.8
20181020112111 39 225 0.0 1.0 0.00 0.01 0.00 75 1023.8
20181020111611 40 202 0.0 1.0 0.00 0.01 0.00 75 1023.7
20181020111111 40 215 1.0 1.0 0.00 0.01 0.00 75 1023.7
20181020110611 40 328 0.0 1.0 0.00 0.01 0.00 75 1023.6
20181020110111 40 220 0.0 1.0 0.00 0.01 0.00 75 1023.6
20181020105611 39 252 1.0 2.0 0.00 0.01 0.00 75 1023.6
20181020105111 39 352 0.0 0.0 0.00 0.01 0.00 76 1023.6
20181020104610 39 201 1.0 2.0 0.00 0.01 0.00 76 1023.6
20181020104110 39 340 1.0 2.0 0.00 0.01 0.00 76 1023.6
20181020103610 39 241 1.0 2.0 0.00 0.01 0.00 78 1023.5
20181020103110 38 238 2.0 5.0 0.00 0.01 0.00 80 1023.5
20181020102610 37 298 2.0 2.0 0.00 0.01 0.00 82 1023.4
20181020102110 36 263 0.0 1.0 0.00 0.01 0.00 82 1023.4
20181020101610 36 226 1.0 1.0 0.00 0.01 0.00 82 1023.4
20181020101110 36 247 1.0 2.0 0.00 0.01 0.00 82 1023.2
20181020100615 36 222 0.0 1.0 0.00 0.01 0.00 82 1023.2
20181020100113 36 253 0.0 0.0 0.00 0.01 0.00 82 1023.1
20181020095614 37 224 0.0 1.0 0.00 0.01 0.00 82 1023.1
20181020095112 37 235 0.0 1.0 0.00 0.01 0.00 82 1023.0
20181020094612 37 215 1.0 1.0 0.00 0.01 0.00 81 1023.0
20181020094112 37 240 0.0 2.0 0.00 0.01 0.00 80 1022.9
20181020093612 37 229 0.0 2.0 0.00 0.01 0.00 80 1023.0
20181020093112 37 228 1.0 3.0 0.00 0.01 0.00 79 1022.9
20181020092611 37 206 1.0 2.0 0.00 0.01 0.00 79 1022.9
20181020092111 38 233 0.0 0.0 0.00 0.01 0.00 78 1022.8
20181020091611 38 233 0.0 0.0 0.00 0.01 0.00 78 1022.8
20181020091111 38 233 0.0 0.0 0.00 0.01 0.00 76 1022.8
20181020090611 39 222 1.0 2.0 0.00 0.02 0.00 74 1022.6
20181020090111 40 203 0.0 1.0 0.00 0.02 0.00 73 1022.5
20181020085611 41 240 0.0 2.0 0.00 0.02 0.00 71 1022.5
20181020085111 42 224 1.0 2.0 0.00 0.02 0.00 68 1022.5
20181020084610 43 226 1.0 5.0 0.00 0.02 0.00 66 1022.4
20181020084110 43 219 0.0 3.0 0.00 0.02 0.00 65 1022.4
20181020083610 44 69 0.0 0.0 0.00 0.02 0.00 64 1022.4
20181020083110 44 101 0.0 1.0 0.00 0.02 0.00 64 1022.3
20181020082610 44 162 0.0 1.0 0.00 0.02 0.00 64 1022.3
20181020082110 44 278 0.0 0.0 0.00 0.02 0.00 63 1022.3
20181020081610 45 298 0.0 1.0 0.00 0.03 0.00 62 1022.4
20181020081114 45 312 1.0 1.0 0.00 0.03 0.00 62 1022.4
20181020080614 45 234 1.0 2.0 0.00 0.03 0.00 61 1022.3
20181020080113 45 206 0.0 0.0 0.00 0.04 0.00 61 1022.3
20181020075613 45 259 0.0 1.0 0.00 0.06 0.00 61 1022.3
20181020075113 45 353 0.0 1.0 0.00 0.07 0.00 61 1022.3
20181020074614 45 297 1.0 5.0 0.00 0.07 0.00 62 1022.2
20181020074112 44 315 2.0 3.0 0.00 0.07 0.00 63 1022.2
20181020073611 43 294 1.0 3.0 0.00 0.07 0.00 65 1022.2
20181020073111 42 301 0.0 2.0 0.00 0.07 0.00 67 1022.2
20181020072610 42 255 1.0 3.0 0.00 0.07 0.00 69 1022.2
20181020072110 43 297 0.0 2.0 0.00 0.07 0.00 69 1022.2
20181020071610 44 213 0.0 1.0 0.00 0.07 0.00 66 1022.1
20181020071110 44 340 0.0 0.0 0.00 0.07 0.00 66 1022.1
20181020070610 43 244 0.0 0.0 0.00 0.07 0.00 66 1022.0
20181020070110 43 244 0.0 0.0 0.00 0.07 0.00 67 1022.2
20181020065610 43 266 1.0 1.0 0.00 0.07 0.00 67 1022.1
20181020065110 42 270 0.0 0.0 0.00 0.07 0.00 69 1022.2
20181020064610 42 270 0.0 0.0 0.00 0.07 0.00 70 1022.2
20181020064110 41 199 0.0 0.0 0.00 0.07 0.00 71 1022.2
20181020063610 41 240 0.0 0.0 0.00 0.07 0.00 73 1022.2
20181020063110 40 325 0.0 2.0 0.00 0.07 0.00 75 1022.3
20181020062610 40 213 0.0 0.0 0.00 0.07 0.00 76 1022.3
20181020062110 39 213 0.0 0.0 0.00 0.07 0.00 77 1022.3
20181020061610 39 213 0.0 0.0 0.00 0.07 0.00 77 1022.2
20181020061110 39 213 0.0 0.0 0.00 0.07 0.00 77 1022.0
20181020060611 40 213 0.0 0.0 0.00 0.07 0.00 77 1022.0
20181020060114 40 206 0.0 1.0 0.00 0.07 0.00 76 1021.9
20181020055614 40 215 0.0 0.0 0.00 0.07 0.00 76 1021.9
20181020055115 40 215 0.0 0.0 0.00 0.07 0.00 76 1021.9
20181020054614 41 215 0.0 0.0 0.00 0.07 0.00 75 1021.9
20181020054114 41 215 0.0 0.0 0.00 0.07 0.00 74 1021.9
20181020053614 41 229 2.0 3.0 0.00 0.07 0.00 74 1021.9
20181020053114 42 208 0.0 0.0 0.00 0.07 0.00 73 1021.9
20181020052613 42 235 1.0 2.0 0.00 0.07 0.00 72 1021.9
20181020052113 42 226 1.0 3.0 0.00 0.07 0.00 71 1021.8
20181020051613 43 225 0.0 2.0 0.00 0.07 0.00 70 1021.8
20181020051113 43 236 1.0 1.0 0.00 0.07 0.00 70 1021.9
20181020050613 43 228 1.0 2.0 0.00 0.07 0.00 69 1021.8
20181020050113 44 229 1.0 3.0 0.00 0.07 0.00 68 1021.8
20181020045612 44 231 2.0 5.0 0.00 0.07 0.07 67 1021.7
20181020045112 44 243 0.0 1.0 0.00 0.07 0.07 67 1021.7
20181020044612 44 247 0.0 0.0 0.00 0.07 0.07 66 1021.8
20181020044112 44 275 1.0 0.0 0.00 0.07 0.07 66 1021.7
20181020043612 44 251 1.0 0.0 0.00 0.07 0.07 66 1021.6
20181020043111 44 215 0.0 0.0 0.00 0.07 0.07 66 1021.7
20181020042611 45 240 0.0 1.0 0.00 0.07 0.07 65 1021.7
20181020042115 45 210 0.0 0.0 0.00 0.07 0.07 64 1021.7
20181020041635 46 276 0.0 5.0 0.00 0.07 0.07 63 1021.6
20181020041139 47 277 0.0 0.0 0.00 0.07 0.07 61 1021.5
20181020040639 48 277 0.0 0.0 0.00 0.07 0.07 60 1021.5
20181020040139 48 277 0.0 0.0 0.00 0.07 0.07 58 1021.5
20181020035639 49 277 0.0 0.0 0.00 0.07 0.07 57 1021.5
20181020035139 49 277 0.0 0.0 0.00 0.07 0.07 57 1021.4
20181020034639 49 277 0.0 0.0 0.00 0.07 0.07 57 1021.4
20181020034139 49 267 0.0 0.0 0.00 0.07 0.07 57 1021.4
20181020033639 49 246 1.0 2.0 0.00 0.07 0.07 57 1021.3
20181020033139 49 312 0.0 0.0 0.00 0.07 0.07 58 1021.3
20181020032639 49 292 0.0 1.0 0.00 0.07 0.07 58 1021.2
20181020032139 49 149 0.0 1.0 0.00 0.07 0.07 58 1021.2
20181020031639 49 148 0.0 0.0 0.00 0.07 0.07 58 1021.2
20181020031139 49 148 0.0 0.0 0.00 0.07 0.07 57 1021.2
20181020030639 50 274 1.0 2.0 0.00 0.07 0.07 57 1021.1
20181020030139 50 181 0.0 0.0 0.00 0.07 0.07 56 1021.1
20181020025639 50 185 0.0 1.0 0.00 0.07 0.07 56 1021.0
20181020025139 50 185 0.0 0.0 0.00 0.07 0.07 55 1020.8
20181020024639 51 185 0.0 0.0 0.00 0.07 0.07 54 1020.8
20181020024139 51 299 0.0 0.0 0.00 0.07 0.07 53 1020.7
20181020023639 51 326 0.0 1.0 0.00 0.07 0.07 53 1020.7
20181020023139 52 215 0.0 0.0 0.00 0.07 0.07 52 1020.6
20181020022639 52 289 0.0 1.0 0.00 0.07 0.07 52 1020.6